SCP
0 0 0 0 0 0 0 0 0 0 0 0 0 0 0 0 0 0 0 0 0 0 0 0 0 0 0 0 0 0 0 0 0 0 0 0 1 1 0 0 0 0 0
0 0 0 0 0 0 0 0 0 0 0 0 0 0 0 0 0 0 0 0 0 0 0 0 0 0 0 0 0 0 0 0 0 0 0 0 1 1 0 0 0 0 0
0 0 0 0 0 0 0 0 0 0 0 0 0 0 0 0 0 0 0 0 0 0 1 1 1 0 0 0 0 1 1 1 1 1 1 1 1 1 1 0 0 0 0
0 0 0 0 0 0 0 0 0 0 0 0 0 0 0 0 0 0 0 0 0 0 1 1 1 1 0 0 0 1 1 1 1 1 1 1 1 1 1 0 0 0 0
0 0 0 0 0 0 0 0 0 0 0 0 0 0 0 0 0 0 0 0 0 0 0 1 1 1 1 1 0 1 1 1 1 1 1 1 1 1 1 1 0 0 0
0 0 0 0 0 0 0 0 0 0 0 0 0 0 0 0 0 0 0 0 0 0 0 0 1 1 1 1 1 1 0 0 1 1 1 1 1 1 1 1 0 0 0
0 0 0 0 0 0 0 0 0 0 0 0 0 0 0 0 0 0 0 0 0 0 0 0 0 1 1 1 1 1 0 0 0 1 1 1 1 1 1 1 1 0 0
0 0 0 0 0 0 0 0 0 0 0 0 0 0 0 0 0 0 0 0 0 0 0 0 0 0 0 0 0 0 0 0 0 1 1 1 1 1 1 1 1 1 1
0 0 0 0 0 0 0 0 0 0 0 0 0 0 0 0 0 0 0 0 0 0 0 0 0 0 0 0 0 0 0 1 1 1 1 1 1 1 1 1 1 1 1
0 0 0 0 0 0 0 0 0 0 0 0 0 0 0 0 0 0 0 0 0 0 0 0 0 0 0 0 0 0 0 1 1 1 1 1 1 1 1 1 1 1 1
0 0 0 0 0 0 0 0 0 0 0 0 0 0 0 0 0 0 0 0 0 0 0 0 0 0 0 0 0 0 0 0 1 1 1 1 1 1 1 1 0 1 1
0 0 0 0 0 0 0 0 0 0 0 0 0 0 0 0 0 0 0 0 0 0 0 0 0 0 0 0 0 0 0 0 0 0 0 0 1 1 1 1 0 0 1
0 0 0 0 1 1 1 0 0 0 0 0 0 0 0 0 0 0 0 0 0 0 0 0 0 0 0 0 0 0 0 0 0 0 0 0 0 0 0 0 0 0 0
0 0 0 1 1 1 1 1 1 1 1 1 1 1 1 1 0 0 0 0 0 0 0 0 0 0 0 0 0 0 0 0 0 0 0 0 0 0 0 0 0 0 0
1 1 1 1 1 1 1 1 1 1 1 1 1 1 1 1 1 0 0 0 0 0 0 0 0 0 0 0 0 0 0 0 0 0 0 0 0 0 0 0 0 0 0
1 1 1 1 1 1 1 1 1 1 1 1 1 1 1 1 1 0 0 0 0 0 0 0 0 0 0 0 0 0 0 0 0 0 0 0 0 0 0 0 0 0 0
1 1 1 1 1 1 1 1 1 1 1 1 1 1 1 1 1 1 0 0 0 0 0 0 0 0 0 0 0 0 0 0 0 0 0 0 0 0 0 0 0 0 0
1 1 1 1 1 1 1 1 1 1 1 1 2 2 2 1 1 1 0 0 0 0 0 0 0 0 0 0 0 0 0 0 0 0 0 0 0 0 0 0 0 0 0
1 1 1 1 1 1 1 1 1 1 1 2 2 2 1 1 1 1 0 0 0 0 0 0 0 0 0 0 0 0 0 0 0 0 0 0 0 0 0 0 0 0 0
1 1 1 1 1 1 1 2 2 2 2 2 3 2 1 1 1 1 0 0 0 0 0 0 0 0 0 0 0 0 0 0 0 0 0 0 0 0 0 0 0 0 0
1 0 0 1 1 1 1 1 2 2 3 3 3 2 1 1 1 1 0 0 0 0 0 0 0 0 0 0 0 0 0 0 0 0 0 0 0 0 0 0 0 0 0
0 0 0 1 1 1 1 1 1 2 2 3 3 2 1 1 1 1 0 0 0 0 0 0 0 0 0 0 0 0 0 0 0 0 0 0 0 0 0 0 0 0 0
1 1 1 1 1 1 1 1 1 1 2 2 2 2 2 1 1 1 1 0 0 0 0 0 1 1 1 0 0 0 0 0 0 0 0 0 0 0 0 0 0 0 0
1 1 1 1 1 1 1 1 1 1 2 2 2 2 2 1 1 1 1 0 0 0 0 0 0 0 1 1 1 0 0 0 0 0 0 0 0 0 0 0 0 0 0
1 1 1 1 1 1 1 1 1 1 2 2 2 2 1 1 1 0 0 0 0 0 0 0 0 0 0 0 0 0 0 0 0 0 0 0 0 0 0 0 0 0 0
1 1 1 1 1 1 2 2 2 1 1 1 1 1 1 1 0 0 0 0 0 0 0 0 0 0 0 0 0 0 1 0 0 0 0 0 0 0 0 0 0 0 0
Wind_Speed
0 0 0 0 0 0 1 1 1 1 1 1 1 3 4 4 4 4 3 8 9 9 9 10 10 10 9 9 9 9 9 9 8 8 8 8 8 8 8 8 7 7 7
1 1 0 0 1 0 0 0 0 0 0 0 1 2 3 4 4 4 4 5 9 9 9 10 10 10 10 10 10 9 9 9 8 8 8 9 9 9 9 9 8 8 8
2 2 1 1 1 1 1 0 0 0 0 0 0 1 2 3 4 4 4 4 4 8 10 10 10 10 11 11 11 10 10 10 9 9 9 8 8 8 8 8 9 9 9
2 2 1 1 1 0 1 1 0 0 0 0 0 0 1 2 3 3 4 4 3 4 7 10 10 10 11 12 11 11 11 10 10 10 10 10 10 9 9 8 8 8 9
3 2 2 1 1 0 1 1 1 1 0 0 0 0 1 1 2 2 3 4 4 4 4 5 8 8 10 11 11 11 11 10 10 10 10 10 10 9 9 8 8 8 8
2 2 1 1 1 1 0 1 1 1 1 0 0 1 0 0 1 1 3 2 2 4 4 4 4 5 7 8 9 9 9 9 8 8 9 9 9 8 8 8 7 8 8
2 2 1 1 1 1 1 1 1 1 1 1 1 1 1 0 0 1 1 1 1 2 2 3 3 2 3 5 5 6 8 8 8 8 8 8 8 7 7 8 8 8 8
1 2 2 1 1 1 1 1 1 1 1 1 2 1 0 1 1 0 0 0 1 1 1 0 1 1 1 1 1 3 4 5 5 5 6 6 6 6 7 7 7 7 8
1 1 1 1 1 1 1 2 2 2 2 1 1 2 2 2 1 1 1 1 2 2 1 1 1 1 0 0 1 1 1 1 1 2 3 4 4 4 5 6 7 7 7
0 0 1 1 1 1 1 2 2 2 2 2 1 1 1 2 2 0 1 2 2 2 2 1 1 1 1 1 2 3 3 3 1 0 1 1 2 2 3 3 4 5 5
1 0 0 0 0 1 1 1 1 2 2 2 2 2 1 1 1 2 1 1 2 2 2 2 2 2 3 2 2 4 6 6 5 4 4 3 3 2 1 0 0 1 1
1 1 0 0 0 0 0 1 1 1 1 2 1 2 2 2 2 2 2 1 1 2 3 3 2 2 3 3 4 7 7 7 7 7 7 6 6 6 5 5 3 2 1
1 1 1 0 0 0 1 1 1 1 1 1 1 1 2 2 2 3 3 2 1 1 2 3 3 3 3 3 4 8 9 10 9 9 9 9 9 9 9 8 7 6 5
0 0 1 1 1 1 1 1 1 1 1 1 1 1 1 1 2 3 3 4 2 1 2 2 2 3 3 3 5 7 7 11 10 10 10 11 11 11 11 11 10 10 10
1 2 2 2 2 2 2 2 2 1 2 1 0 1 1 1 1 2 2 3 4 3 1 1 1 2 2 3 5 5 5 11 11 11 12 12 12 12 11 11 12 12 12
2 3 3 3 3 3 3 3 2 2 3 2 1 2 1 1 1 1 2 2 2 3 3 2 2 2 3 4 7 5 6 11 12 11 11 12 12 12 12 12 13 12 12
3 3 3 3 3 3 3 3 3 3 3 3 2 3 2 1 1 1 2 2 2 3 5 3 2 3 4 5 5 5 5 5 6 11 11 12 12 11 12 12 12 12 12
3 3 3 3 3 3 3 4 3 3 3 3 3 3 3 3 3 2 2 3 3 3 5 6 3 2 3 4 4 5 5 5 5 10 11 11 11 11 11 11 11 11 11
4 3 4 4 4 3 4 4 4 4 4 4 3 3 3 4 4 3 3 3 3 4 4 5 4 2 2 3 4 5 5 4 5 6 8 9 10 10 10 10 10 10 10
4 4 4 4 4 4 4 4 4 4 5 4 4 4 3 3 3 3 3 4 5 5 5 5 4 3 3 3 3 4 3 3 3 4 5 6 8 9 9 9 9 9 9
4 4 5 4 3 3 3 3 4 4 4 4 4 4 4 5 5 4 4 5 6 5 5 5 4 3 3 3 2 2 3 3 3 3 2 3 3 4 4 6 7 7 7
4 4 4 4 4 3 4 5 4 4 4 4 4 3 4 5 6 7 8 7 7 6 6 5 3 4 3 3 2 3 3 2 1 1 1 2 2 2 2 3 5 6 6
4 4 4 4 4 3 5 6 6 4 4 3 3 3 3 4 5 5 7 8 8 7 6 5 5 4 4 4 4 4 3 2 2 1 1 1 1 1 1 2 4 4 4
4 4 3 3 3 3 5 7 8 6 5 4 4 3 4 3 3 5 6 6 5 4 3 3 4 3 3 4 4 4 4 3 2 2 1 1 0 0 1 1 2 3 3
4 3 3 3 3 2 4 6 6 4 4 4 4 4 4 4 4 6 6 6 5 4 5 6 5 5 6 6 6 5 4 3 2 1 1 1 0 0 0 1 1 1 1
4 4 3 2 2 2 3 5 6 4 4 3 3 3 5 4 4 5 5 5 5 2 3 4 5 5 4 5 5 4 4 3 2 1 1 1 1 1 1 0 1 1 1
Wind_Direction
188 358 7 349 345 50 76 61 51 53 58 93 145 164 174 180 183 184 196 201 198 198 200 200 199 200 199 199 200 200 201 201 202 208 209 208 205 206 209 210 211 210 210
188 190 243 298 298 270 191 170 176 16 334 129 187 181 184 187 190 191 202 212 209 205 207 208 207 208 208 208 208 209 209 209 210 213 216 218 216 217 220 219 217 215 214
190 190 201 234 255 252 234 204 220 41 270 166 195 195 189 196 196 202 206 211 215 216 216 218 217 216 216 217 216 218 218 218 219 219 221 221 221 223 226 225 224 223 221
192 181 197 237 247 216 192 204 172 65 340 350 291 243 200 199 206 211 213 211 212 221 226 226 225 223 226 226 224 224 224 224 223 222 225 225 224 223 223 227 230 229 226
186 178 201 227 202 174 217 229 159 169 228 257 242 251 219 214 217 213 214 218 217 220 227 235 235 232 233 234 231 229 228 228 225 226 229 227 224 224 225 228 232 232 228
187 177 194 209 168 162 228 212 184 163 184 202 280 48 36 221 209 212 221 221 224 227 226 232 239 242 241 241 238 236 232 224 222 226 227 225 226 226 225 227 231 235 234
190 176 190 184 172 191 214 194 166 155 163 131 94 37 12 30 165 234 231 213 224 229 218 222 229 235 251 251 250 249 246 236 229 227 225 226 228 226 221 225 228 230 235
196 189 184 197 189 186 191 174 161 156 185 152 140 130 343 348 360 355 54 161 149 112 117 159 200 211 247 259 296 272 256 247 245 237 230 226 227 227 223 225 226 227 228
181 175 187 197 210 194 209 207 189 181 194 202 168 154 163 217 301 10 39 70 74 72 65 66 79 88 117 79 319 336 304 288 249 245 238 229 225 231 238 235 232 230 232
328 155 196 205 211 207 222 227 194 190 184 207 208 203 185 162 167 202 30 59 71 65 53 40 44 56 68 70 61 59 56 46 41 345 285 251 228 229 244 255 249 243 238
356 327 191 197 213 213 208 201 176 180 189 192 189 179 177 146 159 170 185 94 70 54 53 53 47 52 60 62 64 62 60 55 55 53 55 53 51 51 35 323 279 272 249
349 348 30 90 127 170 201 195 174 171 182 179 182 177 168 160 176 171 180 168 113 71 56 55 51 51 59 58 64 69 71 66 62 62 63 65 64 59 52 49 40 40 46
333 324 358 64 65 105 101 114 130 152 164 164 187 200 189 182 162 152 149 151 136 102 66 55 47 55 64 58 60 72 72 72 70 69 67 67 68 65 61 57 49 48 45
242 330 71 68 62 69 83 87 90 97 98 127 168 180 176 189 169 162 159 152 147 116 77 70 53 55 66 69 68 72 74 75 72 72 73 72 70 69 65 62 57 52 48
114 78 76 65 59 63 67 75 75 67 77 78 69 147 171 192 169 168 160 167 162 159 143 109 85 58 79 80 73 77 79 78 77 74 72 73 71 68 64 61 59 55 52
92 85 74 69 65 63 65 73 69 61 72 59 68 80 85 93 114 135 159 158 155 147 138 100 94 90 85 89 81 80 80 82 78 76 73 73 72 71 67 64 61 59 56
101 95 82 72 71 68 67 74 66 63 71 56 52 70 64 69 93 107 120 123 127 129 130 109 91 92 91 93 86 84 80 76 78 77 75 74 73 72 68 66 63 59 58
93 95 94 82 71 68 68 74 72 67 68 61 57 67 60 70 74 80 99 108 118 127 137 133 114 99 96 105 102 93 83 80 77 75 74 72 72 71 69 66 62 59 57
99 86 84 84 77 72 69 69 75 72 69 64 64 73 66 78 77 77 92 102 106 112 118 129 122 102 92 102 99 89 82 71 75 73 71 68 68 69 67 65 63 61 58
101 94 87 83 81 77 75 75 76 75 70 62 60 68 67 78 88 94 101 107 112 110 113 119 119 110 102 101 107 109 99 79 70 64 63 62 61 63 62 63 63 61 59
104 100 92 81 76 79 81 88 85 83 76 69 59 57 67 82 87 95 113 120 122 120 122 123 123 118 117 125 131 132 124 110 80 60 64 52 48 50 47 49 56 59 58
100 93 90 89 78 73 89 95 101 92 84 80 71 55 61 63 78 86 97 107 122 133 138 136 135 139 149 147 133 137 135 128 111 53 79 60 51 51 41 44 46 55 58
107 97 92 91 83 83 96 98 98 97 87 76 72 65 68 62 71 88 89 86 85 98 122 140 144 153 160 167 153 139 133 126 130 134 128 83 43 41 26 40 47 53 56
116 110 104 99 94 97 104 103 98 87 80 66 60 67 79 67 75 98 97 87 77 71 92 121 141 150 150 154 154 149 143 126 103 93 112 111 67 357 1 359 32 50 52
122 118 119 113 107 102 109 112 106 95 85 68 57 60 72 75 81 103 103 99 88 71 73 87 100 109 118 128 138 130 133 135 132 135 135 155 160 209 303 297 322 355 5
135 129 115 107 113 117 128 123 116 110 100 84 59 52 58 73 87 106 113 115 108 91 85 81 76 80 98 116 131 150 158 151 140 168 166 178 165 170 230 254 280 285 279